Showing default

SDS-4, 38339

Orbit data source: Space-Track

SDS-4, 38339 is a payload satellite owned by JAXA (JP) in SSO that was launched on Thu, 17 May 2012 UTC via an H-IIA 202 launch vehicle from the Tanegashima Space Center (TNSTA). Payload-class satellites include a variety of spacecraft equipped with specific instruments for various scientific and technological missions. These include communications satellites like Starlink; space stations such as the ISS; scientific satellites like the Hubble; Earth observation satellites from companies like Planet Labs, Umbra, and HawkEye 360; GPS; miniature CubeSats for education and research; and military/defense satellites.

Loading next visibility...
Identifier
38339, 2012-025C
Orbit
SSO
Country
Flag of JPJP / JPN
Related business
Manufacturer
JAXA
Mission
Operational Civil Technology
Bus & Motor
SDS-1, Unknown motor
Mass
50 kg wet, 50 kg dry
Launch date (UTC)
2012-05-17 (13 years ago)
Launch vehicle
H-IIA 202
Launch site
Tanegashima Space Center (TNSTA)
Object type
Payload
Rocket body
Debris
Shape & HBR
Box + 2 Pan, 0.8 m
Radar Cross Section
0.514 m², Medium (>0.1 m² and < 1m²)

Expand to show TLE details & history
Last TLE update: 8 hours ago

TLE from 8 hours ago
0 SDS-4
1 38339U 12025C   25309.26953956  .00001355  00000-0  20808-3 0  9995
2 38339  98.1435  38.8177 0005740 299.3626  60.7009 14.75227859722963
Epoch: 2025-11-05T06:28Z
TLE epoch observation values (Epoch: 2025-11-05T06:28:08.217Z)
Latitude
0.00001°
Longitude
-102.96117°
Altitude
645.464 km
Speed
7.536 km/s
True Right ascension
02h 35m 16s
True Declination
0° 00' 00"
Sunlit
Object was in full shadow at epoch
Visualization orbit readout
Latitude
Unknown
Longitude
Unknown
Altitude
Unknown
Speed
Unknown
Apparent Right ascension
Unknown
Apparent Declination
Unknown
Sunlit
N/A
Visualization observer readout
Local Sidereal Time
10:13:35
Azimuth
Unknown
Elevation
Unknown
Doppler factor
Unknown
Orbital elements
Apogee altitude
645.516 km
Perigee altitude
637.457 km
Semi-major axis
7,019.623 km
Eccentricity
0.00057
Inclination
98.1435°
RAAN
38.8177°
Arg. of periapsis
299.3626°
True anomaly
60.75828°
Mean anomaly
60.7009°
Eccentric anomaly
60.72959°
Mean motion
3.69039 °/min
Orbital period
97.55 mins
BSTAR
0.00020808
Loading maneuver chart data...
Computing Atmospheric mass density...
Loading historical data...
Loading historical data...
Loading historical data...
Loading historical data...
Loading historical data...
Loading historical data...
Loading historical data...

Documentation

Showing up to 5 results
|